Location: Columbia
(38.9520°N, 92.3340°W)
Time: 19:26:36
(UTC-05:00)

Iridium 15 - Visible Passes

Search period start: 27 August 2016 00:00
Search period end: 06 September 2016 00:00
Orbit: 776 x 779 km, 86.4° (Epoch: 27 August)

Date Brightness Start Highest point End Pass type
(mag) Time Alt. Az. Time Alt. Az. Time Alt. Az.
27 Aug 8.4 00:32:38 10° NNW 00:34:05 19° NNW 00:34:05 19° NNW visible
27 Aug 8.3 23:59:00 10° N 00:00:36 20° N 00:00:36 20° N visible
28 Aug 8.2 23:25:40 10° NNE 23:27:07 18° NNE 23:27:07 18° NNE visible
29 Aug 8.9 01:07:18 10° NW 01:07:35 11° NW 01:07:35 11° NW visible
29 Aug 8.4 22:52:46 10° NNE 22:53:38 14° NNE 22:53:38 14° NNE visible
30 Aug 8.6 00:32:58 10° NNW 00:34:06 16° NNW 00:34:06 16° NNW visible
30 Aug 8.4 23:59:07 10° N 00:00:37 19° N 00:00:37 19° N visible
31 Aug 8.2 23:25:36 10° N 23:27:09 20° N 23:27:09 20° N visible
01 Sep 8.2 22:52:26 10° NNE 22:53:41 16° NNE 22:53:41 16° NNE visible
02 Sep 8.8 00:33:28 10° NNW 00:34:09 13° NNW 00:34:09 13° NNW visible
02 Sep 8.4 22:19:47 10° NNE 22:20:13 12° NE 22:20:13 12° NE visible
02 Sep 8.5 23:59:22 10° NNW 00:00:41 18° NNW 00:00:41 18° NNW visible
03 Sep 8.2 23:25:40 10° N 23:27:14 20° N 23:27:14 20° N visible
04 Sep 8.1 22:52:16 10° N 22:53:47 19° NNE 22:53:47 19° NNE visible
05 Sep 9.0 00:34:14 10° NW 00:34:14 10° NW 00:34:14 10° NW visible
05 Sep 8.2 22:19:15 10° NNE 22:20:20 15° NNE 22:20:20 15° NNE visible
